Location: *
(46.3500°N, 10.9000°E)
Time: 04:05:38
(UTC+00:00)

CZ-4C R/B - Pass Details

Date: 09 April 2020
Orbit: 637 x 1365 km, 63.4° (Epoch: 01 June)

Event Time Altitude Azimuth Distance (km) Brightness Sun altitude
Rises 22:39:05 0° 316° (NW) 3,902 6.4 -34.9°
Reaches altitude 10° 22:41:47 10° 309° (NW) 3,042 5.6 -35.0°
Enters shadow 22:47:01 36° 269° (W) 1,849 3.9 -35.2°
